Vertical_Velocity
0 1 1 0 -0 -0 2 1 0 1 -0 -0 -0 -0 -2 -1 -0 1 1 0 0 0 -0 -0 1 1 1 0 0 0 -0 -1 -0 -0 -1 0 0 1 1 1 1 -0 -0
0 -0 0 0 1 -1 1 1 1 1 -0 -1 1 -0 -1 -1 -1 -1 -0 -0 -1 -1 -0 0 1 1 1 -0 -0 -0 1 0 -0 -0 -1 -1 -0 1 -0 0 0 0 0
0 0 1 0 -1 -0 -0 1 1 1 0 -0 0 1 -0 -0 -1 -1 -1 -1 -1 -1 -1 -1 -0 -1 0 -0 -3 -1 -2 -1 -1 -1 0 -1 -2 -2 -1 -0 -1 -1 -0
1 -0 0 0 -0 1 -0 0 2 0 -0 0 -0 1 0 -0 -0 0 -0 -1 -1 -1 -1 -1 -2 -2 -2 -2 -2 1 0 -0 -0 -0 -0 -1 -2 -2 -3 -2 -0 -1 -0
-0 -1 0 0 0 0 -0 -0 1 -0 0 0 -0 1 1 0 -0 -0 -0 -0 -1 -0 -1 -2 -1 -1 -1 -2 -2 -1 -1 -1 -1 -0 -1 0 -0 -2 -0 -1 -2 -1 -2
1 -1 -1 2 -0 -0 -0 1 -1 0 0 1 -0 0 0 0 -0 -0 -0 -0 -0 -0 0 0 0 -0 -1 -1 -1 -1 -1 -2 -1 -1 -1 -1 -1 -1 -1 -1 -0 -1 -1
-0 1 -2 1 -2 -0 1 0 -1 1 0 0 -0 0 -0 1 -0 0 -0 0 -0 0 0 -0 0 -1 -0 -0 -1 -1 -1 -1 -1 -1 -1 -1 -2 -2 -2 -3 -2 -2 -1
2 -0 -0 0 1 1 2 -0 -0 -1 0 0 -0 0 0 1 1 -0 -1 -0 -1 -0 0 0 0 -0 1 0 1 1 0 1 0 0 -0 -1 -1 -0 -1 -2 -3 -2 -2
2 2 -1 -1 1 0 2 0 0 -1 0 2 1 0 0 0 1 1 -1 -0 -0 -1 -0 -0 -1 -1 -1 -1 -1 -1 -1 -1 -1 -1 -1 -1 -2 -2 -1 -1 -3 -2 -2
2 3 2 -2 0 0 0 1 2 0 -2 0 1 1 1 0 1 0 0 -0 -1 -1 -1 0 -1 -1 -1 -1 -1 -1 -1 -1 -1 -0 -0 0 -0 -1 -1 -1 -1 -2 -2
3 3 2 -0 -1 0 2 1 4 2 -1 -0 1 2 1 0 0 1 1 -1 -0 -1 -1 0 -0 -1 -1 -1 -1 -1 -0 -1 -0 -1 -1 -0 -1 -1 -1 -2 -2 -2 -2
3 2 4 -1 -0 -0 0 1 1 2 -2 1 1 0 1 2 -1 -0 1 -1 -1 -1 -1 -1 -1 -2 -1 -1 -1 -0 -1 -1 -1 -0 -1 -1 -0 -0 0 0 -1 -1 -1
2 -1 2 0 -1 -0 -2 1 2 2 -1 -0 0 0 1 0 0 -1 -0 0 -1 -1 -1 -1 -0 -1 -1 -0 -1 -0 -1 -0 -1 -1 -1 -1 -0 -0 0 0 -1 -1 0
7 7 3 3 3 -2 1 0 1 1 -1 -1 -1 0 1 0 1 -2 -1 1 -0 -2 -2 -2 -1 -1 -1 -1 -0 0 0 0 0 1 1 1 1 -0 -0 -0 -1 -1 -0
-1 6 2 2 4 1 1 2 1 3 2 0 -0 1 1 1 1 -1 -1 2 -1 -2 -2 -2 -2 -1 -2 -2 -1 -1 -1 -1 -0 -0 -0 -1 -1 -1 -0 -0 -1 -1 -1
3 1 -1 1 1 0 2 1 -1 -3 1 -0 -0 -0 -1 1 0 -3 -3 -3 2 -1 -2 -3 -2 -1 -2 -2 -2 -2 -2 -1 -1 -1 -1 -1 -1 0 -1 -1 -0 -0 -0
10 1 2 10 1 -0 -1 0 1 -0 -1 0 0 -1 -0 1 0 -1 -5 -3 -0 0 -1 -2 -3 -2 -1 -3 -3 -3 -2 -3 -3 -2 -2 -2 -1 -2 -2 -2 -1 -1 -1
185 -1 2 4 -1 4 4 2 1 3 0 -1 1 1 2 2 2 0 -0 -2 -3 -0 -1 -2 -2 -2 -2 -1 -2 -2 -3 -3 -3 -3 -3 -3 -2 -1 -2 -2 -1 -1 -1
-10 102 -10 -1 5 5 3 1 0 -2 -2 3 2 2 1 1 2 2 1 0 -2 -1 -0 -2 -3 -2 -1 -2 -2 -2 -3 -3 -2 -3 -2 -3 -3 -2 -1 0 -0 -1 -1
5 3 127 61 15 6 6 2 -1 -2 -4 -2 2 1 2 1 2 -0 1 0 -1 -2 -1 -3 -3 -3 -2 -3 -2 -2 -3 -2 -3 -3 -2 -2 -1 -2 -1 -1 -0 -1 -1
-7 -2 1 -1 87 0 4 10 4 6 3 -0 -1 0 1 1 1 -3 -2 1 -1 -2 -3 -4 -4 -4 -2 -1 -2 -1 -1 -1 -1 -2 -2 -2 -1 -1 -1 -1 -1 -1 -2
-2 -6 1 29 103 15 -1 5 0 -2 -1 -5 -5 -2 -2 1 -1 1 -1 1 -0 -1 -4 -2 -2 -2 -1 -2 -1 -1 -0 -1 0 -1 -2 -3 -1 1 -0 -1 -1 -2 -2
3 3 9 3 25 -6 7 -1 -11 -9 -9 3 5 7 0 -1 0 2 1 -2 -1 -2 -3 -1 -2 -6 -2 -2 -3 1 -1 -1 -0 -2 -0 -0 -2 -1 -1 -3 -2 1 -0
6 4 1 4 37 37 3 3 21 11 4 4 1 -2 -1 -0 2 0 -1 -2 1 -1 -2 -3 0 -1 -1 -0 -2 -2 -1 -2 -2 3 -3 0 0 -2 -1 -2 -2 -3 -1
1 -1 2 8 9 59 -31 -4 1 7 19 -6 -3 1 0 1 -0 1 2 3 4 -0 2 -4 -4 -3 -1 -1 -0 -1 1 1 -1 -0 -0 -0 1 -1 1 1 -2 -3 -3
-3 -4 -7 10 10 -4 32 44 37 10 -0 10 2 -0 -2 -1 -1 -0 1 3 1 4 3 -1 -1 -0 -2 -1 -2 -2 -1 -0 -0 0 1 -0 3 -3 -2 -8 -5 -7 -5
Height
5847 5849 5851 5852 5853 5854 5855 5855 5856 5856 5857 5858 5858 5859 5860 5861 5861 5861 5862 5862 5862 5862 5862 5862 5862 5861 5861 5860 5860 5860 5859 5858 5858 5857 5856 5856 5856 5856 5855 5855 5854 5854 5854
5845 5846 5849 5850 5852 5853 5855 5855 5856 5856 5856 5857 5858 5859 5860 5860 5861 5861 5862 5862 5862 5862 5861 5861 5861 5861 5861 5860 5860 5860 5859 5859 5858 5857 5856 5855 5855 5855 5855 5854 5854 5853 5853
5843 5844 5846 5848 5850 5851 5853 5854 5854 5855 5856 5856 5857 5858 5859 5860 5861 5861 5861 5862 5862 5862 5861 5861 5861 5861 5861 5860 5860 5859 5859 5859 5858 5856 5855 5855 5854 5854 5854 5854 5854 5854 5853
5841 5842 5843 5845 5847 5849 5851 5852 5853 5854 5855 5855 5857 5858 5858 5859 5860 5860 5861 5861 5862 5862 5861 5861 5861 5860 5860 5860 5859 5858 5858 5857 5857 5856 5855 5854 5853 5853 5853 5853 5853 5852 5852
5838 5840 5841 5842 5844 5846 5848 5850 5851 5852 5853 5854 5855 5856 5857 5858 5859 5860 5860 5860 5861 5861 5861 5861 5860 5859 5859 5859 5858 5858 5857 5857 5856 5855 5854 5854 5853 5852 5852 5852 5851 5850 5850
5834 5836 5838 5840 5841 5843 5845 5847 5848 5850 5851 5852 5853 5854 5855 5856 5858 5858 5859 5859 5860 5860 5860 5860 5859 5858 5858 5858 5857 5857 5856 5855 5855 5854 5853 5852 5852 5851 5851 5850 5849 5849 5848
5831 5832 5834 5837 5838 5840 5841 5844 5845 5847 5848 5850 5851 5852 5853 5854 5855 5856 5857 5858 5858 5858 5858 5858 5858 5857 5857 5856 5856 5855 5855 5854 5853 5852 5852 5851 5850 5849 5848 5848 5847 5846 5845
5827 5828 5830 5833 5834 5837 5838 5840 5842 5843 5845 5847 5848 5849 5850 5852 5853 5853 5854 5855 5855 5856 5856 5856 5856 5855 5855 5854 5854 5853 5853 5852 5851 5850 5850 5849 5848 5847 5846 5845 5845 5844 5842
5821 5824 5825 5828 5830 5833 5834 5836 5838 5840 5842 5843 5844 5846 5847 5848 5850 5850 5851 5852 5852 5853 5853 5853 5853 5853 5853 5852 5851 5851 5850 5850 5849 5848 5847 5846 5846 5845 5844 5842 5841 5841 5839
5815 5818 5821 5822 5825 5828 5830 5832 5834 5836 5838 5839 5841 5842 5843 5845 5846 5847 5848 5849 5849 5849 5850 5850 5850 5849 5849 5849 5848 5848 5847 5846 5845 5844 5843 5843 5842 5841 5840 5839 5838 5836 5835
5808 5812 5815 5818 5820 5823 5826 5828 5830 5832 5834 5835 5837 5838 5840 5841 5843 5844 5845 5845 5846 5846 5846 5846 5846 5845 5845 5845 5845 5844 5843 5842 5841 5840 5840 5839 5838 5837 5836 5835 5833 5832 5831
5800 5804 5807 5810 5813 5817 5820 5823 5825 5827 5829 5831 5833 5834 5836 5837 5838 5840 5841 5841 5842 5842 5842 5842 5842 5842 5841 5841 5840 5840 5839 5838 5837 5837 5836 5835 5834 5832 5831 5830 5829 5827 5826
5789 5795 5800 5803 5806 5810 5814 5817 5819 5822 5824 5827 5828 5830 5831 5833 5835 5836 5837 5838 5838 5839 5839 5839 5839 5839 5838 5837 5837 5836 5835 5835 5834 5833 5832 5830 5829 5828 5826 5825 5824 5822 5821
5779 5785 5790 5795 5799 5802 5806 5810 5813 5816 5818 5821 5823 5825 5827 5829 5830 5832 5833 5834 5834 5834 5835 5835 5835 5835 5834 5834 5833 5832 5832 5831 5830 5829 5827 5826 5824 5823 5821 5820 5818 5816 5815
5766 5774 5779 5785 5789 5793 5798 5803 5806 5809 5812 5815 5817 5819 5822 5823 5825 5827 5828 5830 5830 5830 5831 5831 5831 5831 5831 5830 5829 5828 5827 5826 5825 5824 5823 5821 5819 5818 5816 5814 5812 5810 5808
5755 5763 5769 5775 5780 5785 5790 5795 5798 5802 5805 5808 5811 5813 5815 5817 5819 5821 5823 5824 5826 5826 5826 5826 5827 5827 5826 5826 5825 5824 5823 5822 5820 5819 5817 5815 5814 5812 5810 5807 5805 5803 5801
5743 5749 5755 5763 5769 5775 5780 5785 5790 5794 5797 5801 5804 5807 5809 5811 5813 5815 5817 5819 5820 5821 5821 5822 5821 5821 5821 5821 5820 5819 5818 5817 5815 5813 5811 5809 5807 5805 5803 5801 5798 5796 5793
5711 5733 5741 5749 5757 5764 5769 5775 5780 5785 5789 5793 5796 5799 5802 5804 5807 5808 5810 5812 5814 5815 5816 5816 5816 5816 5816 5815 5815 5814 5813 5811 5809 5807 5805 5802 5800 5798 5795 5793 5790 5788 5785
5716 5705 5729 5736 5743 5752 5758 5764 5770 5774 5780 5784 5788 5792 5795 5797 5800 5802 5804 5805 5807 5809 5810 5810 5810 5810 5810 5810 5809 5808 5806 5804 5802 5800 5798 5795 5792 5789 5787 5784 5781 5779 5776
5701 5712 5711 5712 5720 5733 5742 5750 5758 5764 5769 5775 5780 5785 5789 5791 5794 5796 5798 5799 5800 5801 5803 5803 5803 5803 5803 5803 5802 5801 5799 5796 5794 5791 5789 5786 5784 5781 5778 5775 5772 5769 5766
5686 5702 5709 5700 5708 5717 5729 5740 5748 5755 5761 5766 5772 5776 5780 5783 5786 5789 5791 5792 5793 5794 5794 5795 5796 5796 5796 5796 5795 5793 5790 5788 5785 5782 5780 5777 5775 5771 5768 5765 5762 5759 5756
5674 5688 5696 5701 5693 5702 5718 5726 5735 5740 5748 5755 5761 5765 5770 5774 5778 5781 5783 5785 5785 5786 5786 5788 5788 5789 5789 5788 5787 5785 5782 5780 5776 5774 5771 5768 5765 5762 5759 5755 5751 5748 5744
5662 5678 5689 5692 5687 5703 5710 5717 5724 5731 5738 5746 5752 5757 5761 5766 5769 5772 5775 5776 5777 5778 5779 5780 5780 5780 5780 5779 5778 5776 5773 5770 5767 5764 5761 5757 5754 5751 5747 5743 5740 5736 5731
5647 5663 5668 5678 5682 5692 5699 5710 5719 5726 5732 5737 5741 5745 5751 5756 5759 5762 5765 5767 5769 5769 5771 5771 5771 5770 5769 5768 5767 5766 5763 5760 5757 5755 5751 5747 5743 5739 5736 5732 5727 5722 5718
5635 5649 5659 5669 5672 5669 5687 5701 5705 5712 5719 5722 5728 5735 5742 5747 5750 5753 5756 5758 5759 5761 5762 5762 5762 5761 5760 5759 5757 5754 5752 5750 5747 5744 5740 5737 5732 5727 5723 5718 5713 5707 5701
5625 5635 5647 5656 5660 5671 5675 5686 5687 5695 5704 5709 5716 5725 5731 5738 5741 5744 5746 5748 5751 5752 5752 5754 5753 5751 5750 5748 5746 5743 5742 5740 5737 5734 5729 5726 5722 5715 5708 5702 5696 5689 5683